Tracking 30970 objects as of 3-Jul-2025
HD Live streaming from Space Station
objects crossing your sky now

THORAD AGENA D DEB

Track THORAD AGENA D DEB now!
10-day predictions


NORAD ID: 4857
Int'l Code: 1970-025EM
Perigee: 773.2 km
Apogee: 840.6 km
Inclination: 99.8 °
Period: 100.9 minutes
Semi major axis: 7177 km
RCS: 0.0497 m2 (small)
Launch date: April 8, 1970
Source: United States (US)
Launch site: AIR FORCE WESTERN TEST RANGE (AFWTR)

Note: This is SATELLITE DEBRIS
Your satellite tracking list
STARLINK-5631
Track 1 satellite(s)




NASA's NSSDC Master Catalog

Two Line Element Set (TLE):
1 04857U 70025EM  25183.57157727  .00001830  00000-0  75601-3 0  9992
2 04857  99.7664  43.4638 0046951  14.0371 346.2099 14.27612442773032
Source of the keplerian elements: AFSPC